VOI3931 MGGT-MMUN

Flight info

Callsign VOI3931
Flight time 1h 20m
Altitude 31000
Route VILDA AUR DCT VILDA DCT JERON DCT AMINU DCT CTM UG765 PAULE PAULE3G
Aircraft A320/M-SDE3FGHIRWY/LB1

Departure

Time 2026-05-09 01:11
Airport La Aurora International Airport (MGGT)

Arrival

Time 2026-05-09 02:31
Airport Cancún International Airport (MMUN)
Time Latitude Longitude Altitude Speed Heading
2026-05-09 00:46 14.58890 -90.52895 4916 ft 0 kts 287°
2026-05-09 01:02 14.58888 -90.52887 4916 ft 2 kts 287°
2026-05-09 01:02 14.58883 -90.52872 4915 ft 2 kts 287°
2026-05-09 01:02 14.58879 -90.52857 4914 ft 2 kts 287°
2026-05-09 01:03 14.58874 -90.52843 4913 ft 2 kts 287°
2026-05-09 01:03 14.58870 -90.52829 4913 ft 1 kts 287°
2026-05-09 01:03 14.58867 -90.52814 4914 ft 2 kts 265°
2026-05-09 01:03 14.58870 -90.52799 4915 ft 2 kts 247°
2026-05-09 01:04 14.58878 -90.52786 4916 ft 2 kts 226°
2026-05-09 01:04 14.58890 -90.52776 4916 ft 2 kts 206°
2026-05-09 01:04 14.58899 -90.52773 4917 ft 0 kts 194°
2026-05-09 01:06 14.58895 -90.52773 4917 ft 2 kts 193°
2026-05-09 01:06 14.58864 -90.52781 4916 ft 6 kts 191°
2026-05-09 01:06 14.58813 -90.52772 4914 ft 8 kts 141°
2026-05-09 01:07 14.58785 -90.52709 4914 ft 10 kts 102°
2026-05-09 01:07 14.58822 -90.52658 4914 ft 9 kts 22°
2026-05-09 01:07 14.58879 -90.52639 4916 ft 7 kts 17°
2026-05-09 01:07 14.58927 -90.52624 4918 ft 9 kts 17°
2026-05-09 01:08 14.59015 -90.52595 4920 ft 16 kts 17°
2026-05-09 01:08 14.59122 -90.52560 4923 ft 15 kts 17°
2026-05-09 01:08 14.59215 -90.52531 4925 ft 12 kts 16°
2026-05-09 01:08 14.59293 -90.52507 4927 ft 11 kts 17°
2026-05-09 01:09 14.59367 -90.52483 4928 ft 11 kts 17°
2026-05-09 01:09 14.59448 -90.52457 4930 ft 12 kts 17°
2026-05-09 01:09 14.59529 -90.52431 4932 ft 11 kts 17°
2026-05-09 01:09 14.59579 -90.52381 4933 ft 10 kts 96°
2026-05-09 01:10 14.59517 -90.52363 4932 ft 11 kts 204°
2026-05-09 01:10 14.59373 -90.52411 4929 ft 49 kts 197°
2026-05-09 01:10 14.58812 -90.52589 4915 ft 115 kts 198°
2026-05-09 01:10 14.57859 -90.52896 4893 ft 168 kts 197°
2026-05-09 01:11 14.56677 -90.53296 5283 ft 179 kts 198°
2026-05-09 01:11 14.55472 -90.53645 5868 ft 183 kts 185°
2026-05-09 01:11 14.54223 -90.53548 6564 ft 180 kts 166°
2026-05-09 01:11 14.53008 -90.53175 7057 ft 189 kts 162°
2026-05-09 01:12 14.51685 -90.52772 7439 ft 206 kts 163°
2026-05-09 01:12 14.50225 -90.52384 7818 ft 223 kts 165°
2026-05-09 01:12 14.48618 -90.52016 8101 ft 247 kts 166°
2026-05-09 01:12 14.46845 -90.51653 8523 ft 265 kts 167°
2026-05-09 01:13 14.44966 -90.51296 8938 ft 283 kts 167°
2026-05-09 01:13 14.42987 -90.50932 9500 ft 294 kts 167°
2026-05-09 01:13 14.40944 -90.50562 10209 ft 298 kts 167°
2026-05-09 01:13 14.38850 -90.50185 10727 ft 310 kts 167°
2026-05-09 01:14 14.36665 -90.49790 11049 ft 327 kts 168°
2026-05-09 01:14 14.34337 -90.49373 11333 ft 345 kts 168°
2026-05-09 01:14 14.31908 -90.48939 11605 ft 362 kts 168°
2026-05-09 01:14 14.29350 -90.48483 11866 ft 377 kts 168°
2026-05-09 01:15 14.26739 -90.48019 12300 ft 386 kts 168°
2026-05-09 01:15 14.24065 -90.47534 12900 ft 388 kts 166°
2026-05-09 01:15 14.21520 -90.46573 13445 ft 388 kts 148°
2026-05-09 01:15 14.19444 -90.44853 14002 ft 388 kts 130°
2026-05-09 01:16 14.17954 -90.42516 14520 ft 390 kts 113°
2026-05-09 01:16 14.17239 -90.39847 15010 ft 393 kts 96°
2026-05-09 01:16 14.17361 -90.37014 15503 ft 396 kts 78°
2026-05-09 01:17 14.20092 -90.32107 16421 ft 406 kts 42°
2026-05-09 01:17 14.22481 -90.30531 16874 ft 411 kts 24°
2026-05-09 01:17 14.25300 -90.29814 17348 ft 416 kts
2026-05-09 01:17 14.28177 -90.30080 17785 ft 422 kts 346°
2026-05-09 01:18 14.30883 -90.31344 18198 ft 428 kts 326°
2026-05-09 01:18 14.33074 -90.33421 18615 ft 432 kts 313°
2026-05-09 01:18 14.35259 -90.35597 19080 ft 433 kts 324°
2026-05-09 01:18 14.37915 -90.37013 19507 ft 433 kts 345°
2026-05-09 01:19 14.40925 -90.37377 19942 ft 431 kts
2026-05-09 01:19 14.43825 -90.36699 20387 ft 430 kts 20°
2026-05-09 01:19 14.46717 -90.35721 20815 ft 434 kts 20°
2026-05-09 01:19 14.49599 -90.34746 21213 ft 438 kts 20°
2026-05-09 01:20 14.52501 -90.33763 21615 ft 441 kts 20°
2026-05-09 01:20 14.55470 -90.32759 21980 ft 445 kts 20°
2026-05-09 01:20 14.58423 -90.31760 22352 ft 449 kts 20°
2026-05-09 01:20 14.61400 -90.30753 22754 ft 452 kts 20°
2026-05-09 01:21 14.64431 -90.29730 23187 ft 455 kts 20°
2026-05-09 01:21 14.67480 -90.28699 23603 ft 457 kts 20°
2026-05-09 01:21 14.70515 -90.27673 24000 ft 460 kts 20°
2026-05-09 01:21 14.73549 -90.26646 24467 ft 461 kts 20°
2026-05-09 01:22 14.76629 -90.25605 25052 ft 459 kts 20°
2026-05-09 01:22 14.79648 -90.24585 25618 ft 458 kts 20°
2026-05-09 01:22 14.82704 -90.23551 26169 ft 457 kts 20°
2026-05-09 01:22 14.85744 -90.22523 26716 ft 456 kts 20°
2026-05-09 01:23 14.88743 -90.21508 27255 ft 455 kts 20°
2026-05-09 01:23 14.91766 -90.20485 27799 ft 453 kts 20°
2026-05-09 01:23 14.94749 -90.19474 28331 ft 452 kts 20°
2026-05-09 01:23 14.97758 -90.18456 28850 ft 451 kts 20°
2026-05-09 01:24 15.00732 -90.17447 29368 ft 449 kts 20°
2026-05-09 01:24 15.03723 -90.16433 29854 ft 448 kts 20°
2026-05-09 01:24 15.06713 -90.15413 30238 ft 449 kts 20°
2026-05-09 01:24 15.09633 -90.14286 30575 ft 450 kts 24°
2026-05-09 01:25 15.12535 -90.12970 30922 ft 451 kts 27°
2026-05-09 01:25 15.15384 -90.11499 31117 ft 452 kts 28°
2026-05-09 01:25 15.20997 -90.08496 31101 ft 452 kts 29°
2026-05-09 01:26 15.26621 -90.05477 31066 ft 453 kts 28°
2026-05-09 01:26 15.32219 -90.02478 31028 ft 454 kts 28°
2026-05-09 01:27 15.37883 -89.99442 31003 ft 454 kts 28°
2026-05-09 01:27 15.43522 -89.96420 30985 ft 454 kts 28°
2026-05-09 01:28 15.49160 -89.93397 30987 ft 454 kts 28°
2026-05-09 01:28 15.54784 -89.90380 30966 ft 454 kts 28°
2026-05-09 01:29 15.60404 -89.87363 30944 ft 454 kts 28°
2026-05-09 01:29 15.66044 -89.84333 30913 ft 454 kts 28°
2026-05-09 01:30 15.71675 -89.81306 30878 ft 454 kts 28°
2026-05-09 01:30 15.77309 -89.78276 30848 ft 454 kts 28°
2026-05-09 01:31 15.82945 -89.75243 30841 ft 454 kts 28°
2026-05-09 01:31 15.88576 -89.72210 30832 ft 454 kts 28°
2026-05-09 01:32 15.94216 -89.69170 30827 ft 454 kts 28°
2026-05-09 01:32 15.99821 -89.66149 30834 ft 455 kts 28°
2026-05-09 01:33 16.05459 -89.63107 30843 ft 455 kts 28°
2026-05-09 01:33 16.11109 -89.60056 30851 ft 455 kts 28°
2026-05-09 01:34 16.16759 -89.57004 30861 ft 455 kts 28°
2026-05-09 01:34 16.22394 -89.53957 30870 ft 455 kts 28°
2026-05-09 01:35 16.28019 -89.50915 30878 ft 455 kts 28°
2026-05-09 01:35 16.33684 -89.47847 30879 ft 455 kts 28°
2026-05-09 01:36 16.39301 -89.44804 30877 ft 456 kts 28°
2026-05-09 01:36 16.44949 -89.41742 30875 ft 456 kts 28°
2026-05-09 01:37 16.50594 -89.38681 30875 ft 455 kts 28°
2026-05-09 01:37 16.56259 -89.35606 30877 ft 455 kts 27°
2026-05-09 01:38 16.61909 -89.32539 30879 ft 455 kts 28°
2026-05-09 01:38 16.67536 -89.29481 30882 ft 455 kts 28°
2026-05-09 01:39 16.73166 -89.26420 30888 ft 456 kts 28°
2026-05-09 01:39 16.78841 -89.23331 30888 ft 456 kts 28°
2026-05-09 01:40 16.84486 -89.20256 30884 ft 456 kts 28°
2026-05-09 01:40 16.90136 -89.17177 30885 ft 456 kts 28°
2026-05-09 01:41 16.95774 -89.14103 30887 ft 456 kts 27°
2026-05-09 01:41 17.01411 -89.11028 30895 ft 456 kts 28°
2026-05-09 01:42 17.07051 -89.07948 30891 ft 456 kts 28°
2026-05-09 01:42 17.12701 -89.04861 30885 ft 456 kts 28°
2026-05-09 01:43 17.18354 -89.01769 30881 ft 456 kts 28°
2026-05-09 01:43 17.23998 -88.98679 30875 ft 456 kts 27°
2026-05-09 01:44 17.29650 -88.95603 30868 ft 456 kts 26°
2026-05-09 01:44 17.35387 -88.92677 30872 ft 456 kts 25°
2026-05-09 01:45 17.41117 -88.89776 30870 ft 456 kts 26°
2026-05-09 01:45 17.46844 -88.86862 30871 ft 457 kts 26°
2026-05-09 01:46 17.52600 -88.83924 30870 ft 458 kts 26°
2026-05-09 01:46 17.58350 -88.80984 30867 ft 458 kts 26°
2026-05-09 01:47 17.64095 -88.78045 30866 ft 458 kts 25°
2026-05-09 01:47 17.69829 -88.75109 30866 ft 457 kts 25°
2026-05-09 01:48 17.75565 -88.72171 30866 ft 457 kts 25°
2026-05-09 01:48 17.81308 -88.69228 30871 ft 457 kts 25°
2026-05-09 01:49 17.87045 -88.66285 30868 ft 458 kts 25°
2026-05-09 01:49 17.92808 -88.63326 30870 ft 458 kts 25°
2026-05-09 01:50 17.98529 -88.60386 30872 ft 458 kts 25°
2026-05-09 01:50 18.04295 -88.57420 30873 ft 458 kts 25°
2026-05-09 01:51 18.09999 -88.54485 30871 ft 458 kts 25°
2026-05-09 01:51 18.15772 -88.51513 30869 ft 458 kts 25°
2026-05-09 01:52 18.21549 -88.48537 30868 ft 458 kts 25°
2026-05-09 01:52 18.27285 -88.45578 30864 ft 458 kts 25°
2026-05-09 01:53 18.33017 -88.42620 30862 ft 458 kts 25°
2026-05-09 01:53 18.38767 -88.39650 30865 ft 458 kts 25°
2026-05-09 01:54 18.44510 -88.36682 30867 ft 458 kts 25°
2026-05-09 01:54 18.50219 -88.33638 30868 ft 459 kts 28°
2026-05-09 01:55 18.55650 -88.30079 30866 ft 459 kts 33°
2026-05-09 01:55 18.61021 -88.26304 30866 ft 459 kts 33°
2026-05-09 01:56 18.66350 -88.22550 30868 ft 460 kts 33°
2026-05-09 01:56 18.71690 -88.18794 30863 ft 460 kts 33°
2026-05-09 01:57 18.77026 -88.15042 30859 ft 460 kts 33°
2026-05-09 01:57 18.82363 -88.11285 30859 ft 460 kts 33°
2026-05-09 01:58 18.87690 -88.07534 30860 ft 459 kts 32°
2026-05-09 01:58 18.93013 -88.03783 30858 ft 459 kts 33°
2026-05-09 01:59 18.98347 -88.00020 30860 ft 459 kts 32°
2026-05-09 01:59 19.03677 -87.96259 30872 ft 459 kts 32°
2026-05-09 02:00 19.09037 -87.92471 30879 ft 460 kts 32°
2026-05-09 02:00 19.14403 -87.88676 30880 ft 461 kts 32°
2026-05-09 02:01 19.19733 -87.84905 30884 ft 460 kts 32°
2026-05-09 02:01 19.25069 -87.81127 30885 ft 460 kts 32°
2026-05-09 02:02 19.30424 -87.77331 30885 ft 460 kts 32°
2026-05-09 02:02 19.35743 -87.73559 30882 ft 460 kts 32°
2026-05-09 02:03 19.41056 -87.69788 30880 ft 460 kts 32°
2026-05-09 02:03 19.43741 -87.67882 30735 ft 461 kts 32°
2026-05-09 02:03 19.46413 -87.65984 30485 ft 459 kts 32°
2026-05-09 02:04 19.49046 -87.64111 30238 ft 457 kts 32°
2026-05-09 02:04 19.51697 -87.62225 29991 ft 455 kts 32°
2026-05-09 02:04 19.54312 -87.60365 29663 ft 454 kts 32°
2026-05-09 02:04 19.56947 -87.58489 29145 ft 453 kts 32°
2026-05-09 02:05 19.59587 -87.56609 28482 ft 454 kts 32°
2026-05-09 02:05 19.62197 -87.54751 27753 ft 456 kts 32°
2026-05-09 02:05 19.64855 -87.52858 26975 ft 458 kts 33°
2026-05-09 02:05 19.67479 -87.50985 26175 ft 460 kts 33°
2026-05-09 02:06 19.70162 -87.49069 25334 ft 463 kts 34°
2026-05-09 02:06 19.72848 -87.47148 24678 ft 463 kts 34°
2026-05-09 02:06 19.75511 -87.45240 24448 ft 464 kts 34°
2026-05-09 02:07 19.80745 -87.41234 23896 ft 450 kts 42°
2026-05-09 02:07 19.82877 -87.38928 23881 ft 434 kts 50°
2026-05-09 02:07 19.84716 -87.36436 23882 ft 422 kts 54°
2026-05-09 02:07 19.86457 -87.33910 23880 ft 420 kts 55°
2026-05-09 02:08 19.88180 -87.31383 23879 ft 420 kts 55°
2026-05-09 02:08 19.89880 -87.28893 23879 ft 419 kts 55°
2026-05-09 02:08 19.91610 -87.26372 23879 ft 419 kts 55°
2026-05-09 02:08 19.93338 -87.23859 23879 ft 419 kts 55°
2026-05-09 02:09 19.95048 -87.21375 23879 ft 419 kts 55°
2026-05-09 02:09 19.96774 -87.18869 23881 ft 419 kts 54°
2026-05-09 02:09 19.98506 -87.16351 23883 ft 419 kts 54°
2026-05-09 02:09 20.00237 -87.13839 23887 ft 419 kts 54°
2026-05-09 02:10 20.01949 -87.11352 23892 ft 419 kts 54°
2026-05-09 02:10 20.03680 -87.08838 23892 ft 419 kts 54°
2026-05-09 02:10 20.05390 -87.06352 23892 ft 419 kts 54°
2026-05-09 02:10 20.07126 -87.03829 23887 ft 419 kts 54°
2026-05-09 02:11 20.08861 -87.01307 23799 ft 420 kts 54°
2026-05-09 02:11 20.10595 -86.98786 23219 ft 421 kts 55°
2026-05-09 02:11 20.12322 -86.96277 22671 ft 418 kts 55°
2026-05-09 02:11 20.14021 -86.93804 22159 ft 415 kts 55°
2026-05-09 02:12 20.15724 -86.91322 21658 ft 411 kts 56°
2026-05-09 02:12 20.17403 -86.88872 21168 ft 407 kts 55°
2026-05-09 02:12 20.19047 -86.86472 20684 ft 403 kts 55°
2026-05-09 02:12 20.20696 -86.84065 20202 ft 399 kts 55°
2026-05-09 02:13 20.22344 -86.81665 19723 ft 395 kts 55°
2026-05-09 02:13 20.23956 -86.79333 19249 ft 392 kts 55°
2026-05-09 02:13 20.25579 -86.76990 18772 ft 389 kts 55°
2026-05-09 02:13 20.27180 -86.74678 18296 ft 386 kts 55°
2026-05-09 02:14 20.28753 -86.72403 17830 ft 382 kts 55°
2026-05-09 02:14 20.30332 -86.70119 17353 ft 379 kts 55°
2026-05-09 02:14 20.31896 -86.67855 16906 ft 376 kts 55°
2026-05-09 02:14 20.33430 -86.65635 16600 ft 368 kts 55°
2026-05-09 02:15 20.34919 -86.63478 16318 ft 360 kts 55°
2026-05-09 02:15 20.36398 -86.61344 16058 ft 351 kts 54°
2026-05-09 02:15 20.38174 -86.59577 15782 ft 347 kts 30°
2026-05-09 02:15 20.40432 -86.58843 15494 ft 343 kts
2026-05-09 02:16 20.42794 -86.59199 15137 ft 339 kts 344°
2026-05-09 02:16 20.45051 -86.59956 14759 ft 337 kts 341°
2026-05-09 02:16 20.47262 -86.60722 14380 ft 335 kts 342°
2026-05-09 02:16 20.49504 -86.61453 14001 ft 333 kts 343°
2026-05-09 02:17 20.51748 -86.62145 13611 ft 332 kts 344°
2026-05-09 02:17 20.53954 -86.62799 13226 ft 330 kts 344°
2026-05-09 02:17 20.56190 -86.63449 12850 ft 328 kts 345°
2026-05-09 02:17 20.58402 -86.64088 12473 ft 326 kts 345°
2026-05-09 02:18 20.60576 -86.64713 12107 ft 323 kts 345°
2026-05-09 02:18 20.62735 -86.65334 11937 ft 313 kts 345°
2026-05-09 02:18 20.64850 -86.65942 11685 ft 307 kts 345°
2026-05-09 02:18 20.66888 -86.66527 11430 ft 302 kts 345°
2026-05-09 02:19 20.68924 -86.67113 11153 ft 297 kts 345°
2026-05-09 02:19 20.70895 -86.67680 10881 ft 293 kts 345°
2026-05-09 02:19 20.72867 -86.68249 10609 ft 289 kts 345°
2026-05-09 02:19 20.74805 -86.68808 10351 ft 284 kts 345°
2026-05-09 02:20 20.76681 -86.69350 9993 ft 277 kts 346°
2026-05-09 02:20 20.78538 -86.69885 9691 ft 273 kts 346°
2026-05-09 02:20 20.80369 -86.70413 9423 ft 268 kts 346°
2026-05-09 02:20 20.82126 -86.71003 9127 ft 266 kts 333°
2026-05-09 02:21 20.83544 -86.72259 8786 ft 265 kts 306°
2026-05-09 02:21 20.84584 -86.73904 8474 ft 266 kts 302°
2026-05-09 02:21 20.85578 -86.75552 8147 ft 265 kts 302°
2026-05-09 02:21 20.86588 -86.77213 7857 ft 265 kts 303°
2026-05-09 02:22 20.87608 -86.78868 7557 ft 265 kts 303°
2026-05-09 02:22 20.88633 -86.80515 7252 ft 265 kts 303°
2026-05-09 02:22 20.89651 -86.82144 6944 ft 265 kts 303°
2026-05-09 02:22 20.90681 -86.83789 6653 ft 264 kts 303°
2026-05-09 02:23 20.91702 -86.85419 6373 ft 264 kts 303°
2026-05-09 02:23 20.92734 -86.87064 6080 ft 264 kts 303°
2026-05-09 02:23 20.93751 -86.88685 5972 ft 264 kts 303°
2026-05-09 02:23 20.94768 -86.90308 5841 ft 263 kts 303°
2026-05-09 02:24 20.95790 -86.91939 5626 ft 260 kts 303°
2026-05-09 02:24 20.96805 -86.93562 5271 ft 261 kts 303°
2026-05-09 02:24 20.97811 -86.95171 4925 ft 261 kts 303°
2026-05-09 02:24 20.98822 -86.96788 4688 ft 257 kts 303°
2026-05-09 02:25 20.99807 -86.98363 4446 ft 253 kts 303°
2026-05-09 02:25 21.00787 -86.99931 4212 ft 249 kts 303°
2026-05-09 02:25 21.01752 -87.01472 3995 ft 246 kts 303°
2026-05-09 02:25 21.02689 -87.02967 3776 ft 242 kts 304°
2026-05-09 02:26 21.03869 -87.04227 3540 ft 236 kts 338°
2026-05-09 02:26 21.05408 -87.04457 3303 ft 220 kts 21°
2026-05-09 02:26 21.06630 -87.03693 3173 ft 189 kts 46°
2026-05-09 02:26 21.07595 -87.02813 2904 ft 178 kts 47°
2026-05-09 02:27 21.08539 -87.02003 2662 ft 167 kts 45°
2026-05-09 02:27 21.09451 -87.01286 2378 ft 159 kts 43°
2026-05-09 02:27 21.10339 -87.00631 2139 ft 147 kts 44°
2026-05-09 02:27 21.10907 -86.99865 1923 ft 126 kts 90°
2026-05-09 02:28 21.10682 -86.98968 1976 ft 131 kts 120°
2026-05-09 02:28 21.10190 -86.98115 1972 ft 135 kts 123°
2026-05-09 02:28 21.09653 -86.97287 1871 ft 136 kts 126°
2026-05-09 02:28 21.09097 -86.96460 1696 ft 135 kts 123°
2026-05-09 02:29 21.08580 -86.95597 1421 ft 140 kts 122°
2026-05-09 02:29 21.08064 -86.94707 1196 ft 141 kts 123°
2026-05-09 02:29 21.07510 -86.93847 1046 ft 138 kts 125°
2026-05-09 02:29 21.06967 -86.92985 853 ft 136 kts 124°
2026-05-09 02:30 21.06428 -86.92139 669 ft 137 kts 124°
2026-05-09 02:30 21.05910 -86.91300 529 ft 134 kts 124°
2026-05-09 02:30 21.05391 -86.90453 348 ft 137 kts 124°
2026-05-09 02:30 21.04855 -86.89611 183 ft 133 kts 126°
2026-05-09 02:31 21.04355 -86.88814 48 ft 125 kts 126°
2026-05-09 02:31 21.03925 -86.88125 28 ft 88 kts 123°
2026-05-09 02:31 21.03696 -86.87751 26 ft 33 kts 122°
2026-05-09 02:31 21.03616 -86.87557 27 ft 25 kts 102°
2026-05-09 02:32 21.03599 -86.87400 29 ft 18 kts 95°
2026-05-09 02:32 21.03571 -86.87270 30 ft 17 kts 110°
2026-05-09 02:32 21.03523 -86.87170 32 ft 12 kts 111°
2026-05-09 02:32 21.03540 -86.87089 32 ft 11 kts 90°
2026-05-09 02:33 21.03506 -86.87010 33 ft 11 kts 122°
2026-05-09 02:33 21.03461 -86.86938 34 ft 11 kts 124°
2026-05-09 02:33 21.03419 -86.86867 36 ft 11 kts 113°
2026-05-09 02:33 21.03430 -86.86791 36 ft 10 kts 48°
2026-05-09 02:34 21.03492 -86.86742 37 ft 11 kts 34°
2026-05-09 02:34 21.03536 -86.86720 38 ft 3 kts 352°
2026-05-09 02:34 21.03555 -86.86739 38 ft 4 kts 306°
2026-05-09 02:34 21.03578 -86.86770 38 ft 6 kts 309°
2026-05-09 02:35 21.03597 -86.86795 38 ft 0 kts 309°